Stations météo

réclame
Mon MeteoGroup
Chievres, Belgique (6432): Température de l'air & dewpoint: 14.01.2019 12:00:00 - 20.01.2019 12:00:00 (CET)Chievres, Belgique (6432): Vitesse du vent & gusts: 14.01.2019 12:00:00 - 20.01.2019 12:00:00 (CET)Chievres, Belgique (6432): Direction du vent: 14.01.2019 12:00:00 - 20.01.2019 12:00:00 (CET)Chievres, Belgique (6432): reduced air pressure: 14.01.2019 12:00:00 - 20.01.2019 12:00:00 (CET)Chievres, Belgique (6432): visibility: 14.01.2019 12:00:00 - 20.01.2019 12:00:00 (CET)
Date & Time tt [°C] td [°C] ff [km/h] ff [knt] fx [km/h] fx [knt] dd ppp [hPa] vv [km]
20.01.2019 12:00:00 -0,3 -3,6 7 4 11 6 ENE 1017,2 15
20.01.2019 11:00:00 -1,2 -3,8 4 2 11 6 N 1016,7 13
20.01.2019 10:00:00 -3,0 -4,6 8 4 - - E 1016,1 9
20.01.2019 09:00:00 -4,2 -5,2 4 2 4 2 - 1015,5 6
20.01.2019 08:00:00 -3,6 -5,1 4 2 4 2 N 1014,7 10
20.01.2019 07:00:00 -3,8 -5,0 4 2 - - N 1014,0 7
20.01.2019 06:00:00 -3,5 -4,8 4 2 7 4 N 1013,7 9
20.01.2019 05:00:00 -3,2 -4,4 5 3 11 6 ENE 1013,6 9
20.01.2019 04:00:00 -3,0 -4,3 7 4 - - ENE 1013,5 9
20.01.2019 03:00:00 -2,6 -4,0 7 4 11 6 ENE 1013,2 9
20.01.2019 02:00:00 -3,1 -4,4 7 4 7 4 ENE 1013,0 9
20.01.2019 01:00:00 -2,4 -3,7 7 4 - - ENE 1013,0 10
20.01.2019 00:00:00 -2,0 -3,8 7 4 11 6 E 1012,8 13
19.01.2019 23:00:00 -1,8 -3,6 4 2 7 4 N 1012,7 13
19.01.2019 22:00:00 -1,3 -3,7 7 4 - - E 1012,6 14
19.01.2019 21:00:00 -1,3 -3,8 7 4 11 6 E 1012,3 19
19.01.2019 20:00:00 -0,4 -3,8 7 4 14 8 E 1012,3 17
19.01.2019 19:00:00 -0,8 -3,6 7 4 - - ESE 1012,2 19
19.01.2019 18:00:00 0,3 -3,3 11 6 14 8 E 1012,1 20
19.01.2019 17:00:00 0,5 -2,7 7 4 14 8 E 1012,3 20
19.01.2019 16:00:00 2,2 -2,6 11 6 - - ESE 1012,5 20
19.01.2019 15:00:00 3,1 -2,4 11 6 18 10 SE 1013,0 19
19.01.2019 14:00:00 2,2 -2,7 11 6 22 12 SE 1013,7 19
19.01.2019 13:00:00 1,7 -2,4 11 6 - - SE 1014,2 19
19.01.2019 12:00:00 1,0 -2,1 11 6 18 10 SE 1015,1 18
19.01.2019 11:00:00 -0,1 -2,5 14 8 18 10 SE 1015,6 17
19.01.2019 10:00:00 -1,5 -3,1 11 6 - - ESE 1015,7 14
19.01.2019 09:00:00 -2,9 -4,0 11 6 18 10 ESE 1015,7 11
19.01.2019 08:00:00 -2,8 -4,0 11 6 14 8 ESE 1015,7 14
19.01.2019 07:00:00 -3,4 -4,3 7 4 - - ESE 1016,0 11
19.01.2019 06:00:00 -3,2 -3,9 4 2 7 4 N 1016,2 8
19.01.2019 05:00:00 -3,1 -3,8 7 4 7 4 ESE 1016,7 9
19.01.2019 04:00:00 -3,0 -3,8 4 2 - - N 1017,2 9
19.01.2019 03:00:00 -2,3 -3,2 7 4 11 6 SE 1017,8 10
19.01.2019 02:00:00 -2,2 -2,9 7 4 11 6 SE 1018,1 6
19.01.2019 01:00:00 -2,3 -2,8 7 4 - - SE 1018,6 6
19.01.2019 00:00:00 -1,0 -2,0 7 4 14 8 SE 1019,0 10
18.01.2019 23:00:00 -1,0 -1,7 7 4 14 8 SE 1019,1 6
18.01.2019 22:00:00 -0,6 -1,6 7 4 - - SSE 1019,3 8
18.01.2019 21:00:00 -0,3 -1,4 8 4 11 6 SSE 1019,3 8
18.01.2019 20:00:00 -0,1 -1,2 7 4 11 6 SSE 1019,6 9
18.01.2019 19:00:00 -0,4 -1,2 7 4 - - SSE 1019,7 7
18.01.2019 18:00:00 0,3 -0,4 8 4 11 6 S 1019,8 7
18.01.2019 17:00:00 1,7 0,6 4 2 14 8 N 1019,8 8
18.01.2019 16:00:00 2,9 1,8 4 2 - - N 1019,8 7
18.01.2019 15:00:00 3,2 1,6 7 4 14 8 SSE 1020,2 8
18.01.2019 14:00:00 2,6 1,6 11 6 14 8 S 1020,3 7
18.01.2019 13:00:00 1,7 0,9 7 4 - - SSE 1020,8 6
18.01.2019 12:00:00 1,1 0,4 5 3 7 4 SSE 1021,2 6
18.01.2019 11:00:00 0,4 0,0 7 4 7 4 S 1021,3 4,5
18.01.2019 10:00:00 -0,3 -0,6 7 4 - - S 1020,8 7
18.01.2019 09:00:00 -0,8 -1,1 4 2 7 4 N 1020,6 6
18.01.2019 08:00:00 -1,2 -1,5 7 4 7 4 SW 1020,1 6
18.01.2019 07:00:00 -0,8 -1,3 4 2 - - N 1019,8 7
18.01.2019 06:00:00 -0,9 -1,2 4 2 11 6 - 1019,5 6
18.01.2019 05:00:00 -0,5 -0,9 7 4 11 6 SSW 1019,2 8
18.01.2019 04:00:00 0,4 0,0 7 4 - - SW 1019,2 10
18.01.2019 03:00:00 0,4 0,0 11 6 14 8 SSW 1018,8 8
18.01.2019 02:00:00 0,4 0,3 4 2 7 4 N 1018,3 10
18.01.2019 01:00:00 0,4 0,1 4 2 - - N 1017,8 19
18.01.2019 00:00:00 0,3 0,2 5 3 32 18 NNW 1017,6 8
17.01.2019 23:00:00 2,0 0,5 11 6 18 10 W 1016,7 19
17.01.2019 22:00:00 0,5 0,1 7 4 - - W 1016,2 20
17.01.2019 21:00:00 1,3 0,4 11 6 29 16 WNW 1015,7 3,9
17.01.2019 20:00:00 1,2 0,4 18 10 47 25 W 1015,0 19
17.01.2019 19:00:00 1,5 0,3 32 18 - - WNW 1014,0 13
17.01.2019 18:00:00 3,2 -0,4 25 14 40 21 W 1012,3 20
17.01.2019 17:00:00 3,2 -0,8 25 14 50 27 WNW 1011,7 20
17.01.2019 16:00:00 4,0 -0,5 29 16 - - WNW 1010,6 10
17.01.2019 15:00:00 3,6 0,1 25 14 43 23 WNW 1009,7 19
17.01.2019 14:00:00 4,6 1,8 22 12 40 21 WNW 1008,5 20
17.01.2019 13:00:00 3,9 2,0 29 16 - - WNW 1007,7 10
17.01.2019 12:00:00 5,0 3,1 22 12 36 19 WNW 1006,8 19
17.01.2019 11:00:00 4,3 3,2 25 14 36 19 W 1005,8 13
17.01.2019 10:00:00 4,3 3,1 18 10 - - SW 1004,6 20
17.01.2019 09:00:00 4,6 3,6 22 12 40 21 WSW 1004,0 18
17.01.2019 08:00:00 5,1 4,2 25 14 32 18 SW 1003,2 11
17.01.2019 07:00:00 4,7 3,8 14 8 - - SSW 1003,6 19
17.01.2019 06:00:00 4,5 4,1 18 10 25 14 SSW 1004,0 10
17.01.2019 05:00:00 4,4 4,1 14 8 22 12 SSW 1004,5 5
17.01.2019 04:00:00 4,9 4,6 11 6 - - SSW 1004,7 6
17.01.2019 03:00:00 5,5 4,6 11 6 22 12 SW 1005,0 13
17.01.2019 02:00:00 5,6 4,8 14 8 36 19 WSW 1005,0 20
17.01.2019 01:00:00 5,6 5,1 22 12 - - WSW 1004,7 3,2
17.01.2019 00:00:00 5,6 4,4 29 16 43 23 SW 1004,3 13
16.01.2019 23:00:00 5,0 4,0 29 16 47 25 SSW 1004,3 6
16.01.2019 22:00:00 4,8 3,7 29 16 - - SSW 1004,7 10
16.01.2019 21:00:00 5,6 2,5 29 16 43 23 SSW 1005,0 16
16.01.2019 20:00:00 5,5 2,3 25 14 40 21 SSW 1005,2 17
16.01.2019 19:00:00 5,3 2,4 25 14 - - SSW 1006,1 17
16.01.2019 18:00:00 5,3 2,2 25 14 40 21 SSW 1006,6 16
16.01.2019 17:00:00 5,5 2,3 25 14 40 21 SSW 1007,1 16
16.01.2019 16:00:00 5,5 2,2 29 16 - - SW 1007,7 17
16.01.2019 15:00:00 5,5 2,4 18 10 40 21 SW 1008,1 17
16.01.2019 14:00:00 5,3 1,6 29 16 43 23 SW 1009,2 20
16.01.2019 13:00:00 5,3 1,7 29 16 - - SSW 1010,2 20
16.01.2019 12:00:00 5,2 2,3 22 12 40 21 SSW 1011,6 20
16.01.2019 11:00:00 4,8 2,1 25 14 40 21 SSW 1012,2 17
16.01.2019 10:00:00 4,6 2,3 25 14 - - SSW 1013,0 18
16.01.2019 09:00:00 5,0 2,5 22 12 32 18 SSW 1013,1 18
16.01.2019 08:00:00 5,2 2,6 22 12 36 19 SSW 1013,6 20
16.01.2019 07:00:00 5,5 2,3 25 14 - - SSW 1014,0 20
16.01.2019 06:00:00 5,6 2,5 22 12 29 16 SSW 1014,3 20
16.01.2019 05:00:00 5,8 3,0 18 10 29 16 SSW 1015,2 20
16.01.2019 04:00:00 5,9 3,3 22 12 - - SSW 1015,8 20
16.01.2019 03:00:00 6,0 3,5 22 12 32 18 SW 1016,6 20
16.01.2019 02:00:00 6,0 3,8 22 12 32 18 SSW 1016,8 20
16.01.2019 01:00:00 6,0 4,1 22 12 - - SW 1017,6 17
16.01.2019 00:00:00 6,0 4,1 18 10 29 16 SW 1018,1 20
15.01.2019 23:00:00 5,9 4,4 18 10 25 14 SW 1018,6 18
15.01.2019 22:00:00 5,6 4,9 18 10 - - SW 1019,0 2,3
15.01.2019 21:00:00 5,8 5,4 18 10 29 16 SSW 1019,3 4,7
15.01.2019 20:00:00 6,1 5,7 21 11 32 18 SW 1019,8 7
15.01.2019 19:00:00 6,0 5,6 18 10 - - SSW 1019,8 8
15.01.2019 18:00:00 6,0 5,5 14 8 29 16 SW 1020,3 5
15.01.2019 17:00:00 6,0 5,0 18 10 25 14 SSW 1020,5 17
15.01.2019 16:00:00 6,3 4,8 18 10 - - WSW 1020,7 20
15.01.2019 15:00:00 6,5 4,2 18 10 29 16 WSW 1020,7 15
15.01.2019 14:00:00 6,9 3,7 18 10 29 16 WSW 1021,0 20
15.01.2019 13:00:00 7,0 3,7 18 10 - - WSW 1021,5 20
15.01.2019 12:00:00 6,8 3,5 18 10 29 16 WSW 1021,8 19
15.01.2019 11:00:00 5,6 3,5 18 10 25 14 WSW 1022,3 20
15.01.2019 10:00:00 3,7 2,9 11 6 - - SW 1022,6 15
15.01.2019 09:00:00 3,0 2,5 11 6 14 8 SW 1022,3 12
15.01.2019 08:00:00 3,9 3,2 11 6 14 8 SW 1022,3 12
15.01.2019 07:00:00 4,3 3,6 11 6 - - SW 1022,2 11
15.01.2019 06:00:00 4,0 3,5 11 6 14 8 SW 1022,6 8
15.01.2019 05:00:00 3,9 3,3 9 5 14 8 SW 1023,0 7
15.01.2019 04:00:00 3,7 3,1 11 6 - - SW 1023,2 8
15.01.2019 03:00:00 2,0 1,9 8 4 11 6 SW 1023,3 6
15.01.2019 02:00:00 1,7 1,5 7 4 11 6 SSW 1023,1 4,9
15.01.2019 01:00:00 2,0 1,8 4 2 - - N 1023,5 1,3
15.01.2019 00:00:00 3,8 3,5 2 1 11 6 - 1023,3 4,9
14.01.2019 23:00:00 3,5 3,0 7 4 7 4 SSW 1023,1 7
14.01.2019 22:00:00 3,0 2,3 4 2 - - N 1023,0 13
14.01.2019 21:00:00 3,7 2,6 7 4 11 6 WSW 1022,8 20
14.01.2019 20:00:00 3,7 2,2 4 2 14 8 N 1022,7 20
14.01.2019 19:00:00 4,0 2,2 11 6 - - WNW 1022,3 20
14.01.2019 18:00:00 5,1 3,1 11 6 18 10 WNW 1021,7 20
14.01.2019 17:00:00 5,8 2,3 11 6 22 12 NNW 1021,3 20
14.01.2019 16:00:00 6,0 2,9 18 10 - - NW 1020,6 20
14.01.2019 15:00:00 6,5 3,5 18 10 50 27 NW 1019,7 20
14.01.2019 14:00:00 7,9 3,4 18 10 36 19 NW 1019,1 20
14.01.2019 13:00:00 7,8 4,2 25 14 - - NW 1018,5 20
14.01.2019 12:00:00 7,0 4,2 25 14 36 19 WNW 1018,1 17

tt = Température de l'air
td = dewpoint
ff = Vitesse du vent
fx = gusts
dd = Direction du vent
ppp = reduced air pressure
vv = visibility

stations d'obs. à proximité